STARLINK-31470, 59569

Orbit data source: Space-Track

STARLINK-31470, 59569 is a payload satellite owned by SpaceX/Seattle (US) in LEO that was launched on Tue, 23 Apr 2024 UTC via an FALCON 9 launch vehicle from the Air Force Eastern Test Range (AFETR). Payload-class satellites include a variety of spacecraft equipped with specific instruments for various scientific and technological missions. These include communications satellites like Starlink; space stations such as the ISS; scientific satellites like the Hubble; Earth observation satellites from companies like Planet Labs, Umbra, and HawkEye 360; GPS; miniature CubeSats for education and research; and military/defense satellites.

Loading next visibility...
Identifier
59569, 2024-076F
Orbit
LEO
Country
Flag of USUS
Related business
Manufacturer
SpaceX/Seattle
Mission
Operational spacecraft
Bus & Motor
STARLINK V2M, Unknown motor
Mass
730 kg wet, ~700 kg dry
Launch date (UTC)
2024-04-23 (1 year ago)
Launch vehicle
FALCON 9
Launch site
Air Force Eastern Test Range (AFETR)
Object type
Payload
Rocket body
Debris
Shape & HBR
Unknown
Radar Cross Section
Large (>1 m²)

Expand to show TLE details & history
Last TLE update: 1 day ago

TLE from 1 day ago
0 STARLINK-31470
1 59569U 24076F   25257.09124734 -.00000163  00000-0  36134-5 0  9997
2 59569  43.0027 282.9312 0001406 272.1195  87.9495 15.27571103 79445
Epoch: 2025-09-14T02:11Z
TLE epoch observation values (Epoch: 2025-09-14T02:11:23.77Z)
Latitude
-0.00005°
Longitude
-103.23313°
Altitude
482.817 km
Speed
7.626 km/s
True Right ascension
18h 51m 43s
True Declination
0° 00' 00"
Sunlit
Object was in daylight at epoch
Visualization orbit readout
Latitude
Unknown
Longitude
Unknown
Altitude
Unknown
Speed
Unknown
Apparent Right ascension
Unknown
Apparent Declination
Unknown
Sunlit
N/A
Visualization observer readout
Local Sidereal Time
00:39:35
Azimuth
Unknown
Elevation
Unknown
Doppler factor
Unknown
Orbital elements
Apogee altitude
485.985 km
Perigee altitude
484.055 km
Semi-major axis
6,863.157 km
Eccentricity
0.00014
Inclination
43.0027°
RAAN
282.9312°
Arg. of periapsis
272.1195°
True anomaly
87.9656°
Mean anomaly
87.9495°
Eccentric anomaly
87.95755°
Mean motion
3.81731 °/min
Orbital period
94.31 mins
BSTAR
0.0000036134
Loading maneuver chart data...
Computing Atmospheric mass density...
Loading historical data...
Loading historical data...
Loading historical data...
Loading historical data...
Loading historical data...
Loading historical data...
Loading historical data...

Documentation

Showing up to 5 results
|